SKW3957 KLGA-KBNA

Flight info

Callsign SKW3957
Flight time N/A
Altitude 24000
Route DCT PARKE J6 HVQ Q68 YOCKY DCT GROAT PASLY5
Aircraft E75L/M-SDE3GILORVW/S

Departure

Time 2026-05-01 12:26
Airport LaGuardia Airport (KLGA)

Arrival

Time N/A
Airport Nashville International Airport (KBNA)
Time Latitude Longitude Altitude Speed Heading
2026-05-01 12:02 40.77163 -73.86326 8 ft 0 kts 132°
2026-05-01 12:20 40.77175 -73.86343 19 ft 4 kts 128°
2026-05-01 12:20 40.77188 -73.86373 19 ft 4 kts 106°
2026-05-01 12:20 40.77185 -73.86401 20 ft 2 kts 43°
2026-05-01 12:20 40.77184 -73.86402 20 ft 0 kts 42°
2026-05-01 12:22 40.77191 -73.86393 17 ft 3 kts 42°
2026-05-01 12:22 40.77213 -73.86367 17 ft 5 kts 42°
2026-05-01 12:23 40.77247 -73.86327 16 ft 9 kts 41°
2026-05-01 12:23 40.77267 -73.86227 10 ft 15 kts 120°
2026-05-01 12:23 40.77209 -73.86106 10 ft 16 kts 122°
2026-05-01 12:23 40.77151 -73.85984 10 ft 14 kts 122°
2026-05-01 12:24 40.77109 -73.85891 9 ft 12 kts 104°
2026-05-01 12:24 40.77144 -73.85810 10 ft 8 kts 46°
2026-05-01 12:24 40.77146 -73.85808 12 ft 0 kts 46°
2026-05-01 12:24 40.77148 -73.85804 12 ft 2 kts 46°
2026-05-01 12:25 40.77167 -73.85780 12 ft 6 kts 43°
2026-05-01 12:25 40.77256 -73.85816 14 ft 26 kts 303°
2026-05-01 12:25 40.77485 -73.86295 12 ft 95 kts 302°
2026-05-01 12:26 40.77945 -73.87257 112 ft 140 kts 302°
2026-05-01 12:26 40.79417 -73.88815 1357 ft 147 kts 341°
2026-05-01 12:26 40.80376 -73.89282 1934 ft 148 kts 341°
2026-05-01 12:27 40.81401 -73.89738 2397 ft 163 kts 342°
2026-05-01 12:27 40.83656 -73.90739 3550 ft 186 kts 342°
2026-05-01 12:28 40.86358 -73.91877 4482 ft 220 kts 340°
2026-05-01 12:28 40.87671 -73.93008 4956 ft 236 kts 312°
2026-05-01 12:28 40.88300 -73.97293 6189 ft 259 kts 255°
2026-05-01 12:29 40.87681 -73.99527 7029 ft 259 kts 253°
2026-05-01 12:29 40.87070 -74.01772 7760 ft 260 kts 256°
2026-05-01 12:29 40.86272 -74.06435 9239 ft 261 kts 263°
2026-05-01 12:30 40.85485 -74.11191 10383 ft 277 kts 262°
2026-05-01 12:30 40.85046 -74.13759 10628 ft 295 kts 261°
2026-05-01 12:30 40.84577 -74.16438 11171 ft 301 kts 260°
2026-05-01 12:31 40.84098 -74.19134 11918 ft 302 kts 259°
2026-05-01 12:31 40.83618 -74.21831 12733 ft 301 kts 259°
2026-05-01 12:31 40.83138 -74.24524 13584 ft 302 kts 258°
2026-05-01 12:31 40.82663 -74.27195 14336 ft 303 kts 258°
2026-05-01 12:32 40.82180 -74.29916 15079 ft 305 kts 258°
2026-05-01 12:32 40.81201 -74.35407 16567 ft 310 kts 259°
2026-05-01 12:32 40.80706 -74.38181 17287 ft 312 kts 259°
2026-05-01 12:33 40.80207 -74.40973 18026 ft 313 kts 259°
2026-05-01 12:33 40.79704 -74.43783 18676 ft 315 kts 259°
2026-05-01 12:33 40.79199 -74.46602 19276 ft 317 kts 259°
2026-05-01 12:33 40.78689 -74.49443 19883 ft 318 kts 258°
2026-05-01 12:34 40.78177 -74.52294 20458 ft 321 kts 258°
2026-05-01 12:34 40.77659 -74.55163 21025 ft 322 kts 258°
2026-05-01 12:34 40.77141 -74.58045 21599 ft 324 kts 258°
2026-05-01 12:34 40.76619 -74.60946 22160 ft 326 kts 258°
2026-05-01 12:35 40.76093 -74.63865 22703 ft 328 kts 258°
2026-05-01 12:35 40.75564 -74.66797 23232 ft 329 kts 258°
2026-05-01 12:35 40.75030 -74.69745 23709 ft 332 kts 258°
2026-05-01 12:35 40.74497 -74.72693 24178 ft 333 kts 258°
2026-05-01 12:36 40.73949 -74.75724 24164 ft 346 kts 258°
2026-05-01 12:36 40.73386 -74.78844 24147 ft 353 kts 258°
2026-05-01 12:36 40.72813 -74.82007 23968 ft 354 kts 258°
2026-05-01 12:36 40.72241 -74.85159 23995 ft 355 kts 258°
2026-05-01 12:37 40.71664 -74.88326 23997 ft 356 kts 258°
2026-05-01 12:37 40.71085 -74.91499 24009 ft 355 kts 258°
2026-05-01 12:37 40.70508 -74.94666 24014 ft 356 kts 258°
2026-05-01 12:37 40.69929 -74.97834 24015 ft 356 kts 258°
2026-05-01 12:38 40.69351 -75.01000 24010 ft 355 kts 258°
2026-05-01 12:38 40.68770 -75.04170 24019 ft 355 kts 258°
2026-05-01 12:38 40.68085 -75.07262 24013 ft 359 kts 249°
2026-05-01 12:38 40.66868 -75.10139 24049 ft 361 kts 244°
2026-05-01 12:39 40.65620 -75.13011 24013 ft 360 kts 244°
2026-05-01 12:39 40.64381 -75.15873 24013 ft 360 kts 244°
2026-05-01 12:39 40.63121 -75.18733 24023 ft 361 kts 244°
2026-05-01 12:39 40.61851 -75.21578 24014 ft 361 kts 244°
2026-05-01 12:40 40.60577 -75.24423 24001 ft 360 kts 243°
2026-05-01 12:40 40.59306 -75.27254 24024 ft 360 kts 243°
2026-05-01 12:40 40.58030 -75.30086 24028 ft 360 kts 243°
2026-05-01 12:40 40.56754 -75.32919 24031 ft 360 kts 243°
2026-05-01 12:41 40.55480 -75.35747 24038 ft 360 kts 243°
2026-05-01 12:41 40.54203 -75.38575 24041 ft 360 kts 243°
2026-05-01 12:41 40.52925 -75.41402 24035 ft 360 kts 243°
2026-05-01 12:41 40.51630 -75.44212 24027 ft 359 kts 243°
2026-05-01 12:42 40.50333 -75.47011 24034 ft 358 kts 243°
2026-05-01 12:42 40.49040 -75.49809 24041 ft 358 kts 243°
2026-05-01 12:42 40.47746 -75.52612 24038 ft 358 kts 243°
2026-05-01 12:42 40.46453 -75.55406 24038 ft 358 kts 243°
2026-05-01 12:43 40.45159 -75.58201 24031 ft 359 kts 243°
2026-05-01 12:43 40.43864 -75.60999 24017 ft 359 kts 243°
2026-05-01 12:43 40.42565 -75.63802 24036 ft 360 kts 243°
2026-05-01 12:43 40.41262 -75.66608 24046 ft 359 kts 243°
2026-05-01 12:44 40.39965 -75.69409 24039 ft 359 kts 243°
2026-05-01 12:44 40.38684 -75.72169 24039 ft 359 kts 243°
2026-05-01 12:44 40.36083 -75.77764 24040 ft 359 kts 243°
2026-05-01 12:45 40.33484 -75.83340 24022 ft 358 kts 243°
2026-05-01 12:45 40.32188 -75.86120 24039 ft 358 kts 243°
2026-05-01 12:45 40.30892 -75.88902 24044 ft 358 kts 243°
2026-05-01 12:46 40.29593 -75.91685 24038 ft 358 kts 243°
2026-05-01 12:46 40.28293 -75.94467 24031 ft 358 kts 243°
2026-05-01 12:46 40.26992 -75.97249 24007 ft 358 kts 242°
2026-05-01 12:46 40.25689 -76.00036 24034 ft 360 kts 242°
2026-05-01 12:47 40.24382 -76.02826 24032 ft 360 kts 242°
2026-05-01 12:47 40.23072 -76.05619 24033 ft 360 kts 242°
2026-05-01 12:47 40.21764 -76.08406 24029 ft 359 kts 242°
2026-05-01 12:47 40.20454 -76.11196 24044 ft 360 kts 242°
2026-05-01 12:48 40.19145 -76.13978 24047 ft 360 kts 242°
2026-05-01 12:48 40.17835 -76.16761 24036 ft 358 kts 242°
2026-05-01 12:48 40.16527 -76.19535 24045 ft 359 kts 242°
2026-05-01 12:48 40.15219 -76.22309 24051 ft 359 kts 242°
2026-05-01 12:49 40.13908 -76.25086 24047 ft 359 kts 242°
2026-05-01 12:49 40.12599 -76.27858 24044 ft 359 kts 242°
2026-05-01 12:49 40.11290 -76.30633 24047 ft 359 kts 243°
2026-05-01 12:49 40.10006 -76.33423 24045 ft 359 kts 243°
2026-05-01 12:50 40.08722 -76.36227 24069 ft 361 kts 243°
2026-05-01 12:50 40.07443 -76.39012 24030 ft 361 kts 243°
2026-05-01 12:50 40.06146 -76.41822 24039 ft 362 kts 243°
2026-05-01 12:50 40.04848 -76.44634 24039 ft 362 kts 243°
2026-05-01 12:51 40.03549 -76.47442 24043 ft 361 kts 243°
2026-05-01 12:51 40.02249 -76.50251 24042 ft 361 kts 243°
2026-05-01 12:51 39.99650 -76.55850 24051 ft 360 kts 243°
2026-05-01 12:52 39.98353 -76.58647 24042 ft 360 kts 243°
2026-05-01 12:52 39.95755 -76.64238 24046 ft 360 kts 243°
2026-05-01 12:52 39.94457 -76.67029 24048 ft 360 kts 243°
2026-05-01 12:53 39.91854 -76.72617 24047 ft 361 kts 243°
2026-05-01 12:53 39.90550 -76.75411 24045 ft 361 kts 243°
2026-05-01 12:53 39.89248 -76.78200 24047 ft 361 kts 243°
2026-05-01 12:54 39.87942 -76.80993 24046 ft 360 kts 243°
2026-05-01 12:54 39.85350 -76.86530 24048 ft 360 kts 243°
2026-05-01 12:54 39.84047 -76.89303 24043 ft 358 kts 243°
2026-05-01 12:55 39.81448 -76.94845 24053 ft 359 kts 243°
2026-05-01 12:55 39.80147 -76.97614 24047 ft 359 kts 243°
2026-05-01 12:55 39.78844 -77.00385 24050 ft 359 kts 243°
2026-05-01 12:56 39.77537 -77.03160 24050 ft 359 kts 243°
2026-05-01 12:56 39.76233 -77.05928 24049 ft 359 kts 243°
2026-05-01 12:56 39.74929 -77.08692 24026 ft 359 kts 243°
2026-05-01 12:56 39.73618 -77.11472 24052 ft 361 kts 243°
2026-05-01 12:57 39.72305 -77.14251 24050 ft 361 kts 243°
2026-05-01 12:57 39.69676 -77.19807 24049 ft 361 kts 242°
2026-05-01 12:57 39.68358 -77.22589 24047 ft 361 kts 242°
2026-05-01 12:58 39.67041 -77.25366 24045 ft 361 kts 242°
2026-05-01 12:58 39.65740 -77.28104 24052 ft 361 kts 242°
2026-05-01 12:58 39.64419 -77.30884 24068 ft 361 kts 242°
2026-05-01 12:59 39.61783 -77.36424 24074 ft 361 kts 242°
2026-05-01 12:59 39.60911 -77.38255 24072 ft 361 kts 242°
2026-05-01 12:59 39.58271 -77.43795 24072 ft 361 kts 242°
2026-05-01 13:00 39.55624 -77.49337 24080 ft 363 kts 242°
2026-05-01 13:00 39.54295 -77.52115 24087 ft 362 kts 242°
2026-05-01 13:01 39.51635 -77.57670 24078 ft 362 kts 242°
2026-05-01 13:01 39.50304 -77.60444 24072 ft 363 kts 242°
2026-05-01 13:01 39.47652 -77.65974 24068 ft 363 kts 242°
2026-05-01 13:02 39.46319 -77.68743 24069 ft 363 kts 242°
2026-05-01 13:07 39.21113 -78.28571 24006 ft 360 kts 246°
2026-05-01 13:07 39.19961 -78.31440 24047 ft 361 kts 246°
2026-05-01 13:07 39.18807 -78.34310 24036 ft 360 kts 246°
2026-05-01 13:08 39.17651 -78.37183 24036 ft 360 kts 246°
2026-05-01 13:08 39.16496 -78.40048 24031 ft 360 kts 246°
2026-05-01 13:08 39.15341 -78.42907 24052 ft 360 kts 246°
2026-05-01 13:08 39.14183 -78.45776 24045 ft 361 kts 246°
2026-05-01 13:09 39.13027 -78.48640 24052 ft 360 kts 246°
2026-05-01 13:09 39.11886 -78.51462 24050 ft 361 kts 246°
2026-05-01 13:09 39.10727 -78.54325 24049 ft 361 kts 246°
2026-05-01 13:09 39.09568 -78.57186 24050 ft 361 kts 246°
2026-05-01 13:10 39.08408 -78.60047 24053 ft 360 kts 246°
2026-05-01 13:10 39.07248 -78.62904 24052 ft 360 kts 246°
2026-05-01 13:10 39.06087 -78.65759 24054 ft 360 kts 246°
2026-05-01 13:10 39.04927 -78.68616 24062 ft 361 kts 246°
2026-05-01 13:11 39.03764 -78.71474 24053 ft 359 kts 246°
2026-05-01 13:11 39.02604 -78.74317 24052 ft 359 kts 246°
2026-05-01 13:11 39.01442 -78.77169 24059 ft 360 kts 246°
2026-05-01 13:11 39.00281 -78.80014 24056 ft 359 kts 246°
2026-05-01 13:12 38.99116 -78.82862 24052 ft 359 kts 246°
2026-05-01 13:12 38.97953 -78.85705 24056 ft 359 kts 246°
2026-05-01 13:12 38.96792 -78.88546 24055 ft 359 kts 246°
2026-05-01 13:12 38.95631 -78.91392 24053 ft 358 kts 246°
2026-05-01 13:13 38.94473 -78.94229 24052 ft 359 kts 246°
2026-05-01 13:13 38.93312 -78.97072 24057 ft 360 kts 246°
2026-05-01 13:13 38.92151 -78.99913 24052 ft 359 kts 246°
2026-05-01 13:13 38.91007 -79.02719 24057 ft 359 kts 246°
2026-05-01 13:14 38.89847 -79.05553 24040 ft 358 kts 246°
2026-05-01 13:14 38.88689 -79.08390 24027 ft 358 kts 246°
2026-05-01 13:14 38.87521 -79.11225 24066 ft 359 kts 246°
2026-05-01 13:14 38.86355 -79.14055 24050 ft 358 kts 246°
2026-05-01 13:15 38.85191 -79.16887 24055 ft 359 kts 246°
2026-05-01 13:15 38.84151 -79.19757 24087 ft 348 kts 255°
2026-05-01 13:15 38.83586 -79.22783 24094 ft 349 kts 259°
2026-05-01 13:15 38.83019 -79.25766 24031 ft 349 kts 258°
2026-05-01 13:16 38.82441 -79.28787 24042 ft 348 kts 258°
2026-05-01 13:16 38.81877 -79.31807 24047 ft 348 kts 258°
2026-05-01 13:16 38.81328 -79.34828 24040 ft 348 kts 258°
2026-05-01 13:17 38.79680 -79.43915 24051 ft 349 kts 258°
2026-05-01 13:17 38.79132 -79.46949 24048 ft 350 kts 258°
2026-05-01 13:18 38.78026 -79.53022 24050 ft 349 kts 258°
2026-05-01 13:18 38.77475 -79.56054 24059 ft 349 kts 259°
2026-05-01 13:18 38.76924 -79.59086 24054 ft 349 kts 258°
2026-05-01 13:18 38.76378 -79.62080 24060 ft 350 kts 258°
2026-05-01 13:19 38.75825 -79.65112 24062 ft 349 kts 258°
2026-05-01 13:19 38.75267 -79.68154 24063 ft 350 kts 258°
2026-05-01 13:19 38.74153 -79.74227 24050 ft 350 kts 258°
2026-05-01 13:20 38.73595 -79.77258 24052 ft 350 kts 258°
2026-05-01 13:20 38.73036 -79.80298 24047 ft 350 kts 258°
2026-05-01 13:20 38.72477 -79.83334 24044 ft 351 kts 258°
2026-05-01 13:21 38.71359 -79.89381 24047 ft 351 kts 258°
2026-05-01 13:21 38.70795 -79.92418 24048 ft 350 kts 258°
2026-05-01 13:21 38.70220 -79.95501 24049 ft 351 kts 258°
2026-05-01 13:21 38.69661 -79.98502 24046 ft 350 kts 258°
2026-05-01 13:22 38.69099 -80.01532 24060 ft 347 kts 258°
2026-05-01 13:22 38.68547 -80.04528 24052 ft 345 kts 258°
2026-05-01 13:22 38.67989 -80.07514 24061 ft 345 kts 258°
2026-05-01 13:22 38.67426 -80.10503 24060 ft 346 kts 258°
2026-05-01 13:23 38.66864 -80.13496 24052 ft 346 kts 258°
2026-05-01 13:23 38.66304 -80.16490 24034 ft 346 kts 258°
2026-05-01 13:23 38.65741 -80.19488 24060 ft 347 kts 258°
2026-05-01 13:23 38.65175 -80.22484 24046 ft 347 kts 258°
2026-05-01 13:24 38.64609 -80.25485 24049 ft 346 kts 258°
2026-05-01 13:24 38.64044 -80.28483 24052 ft 347 kts 258°
2026-05-01 13:24 38.63477 -80.31483 24040 ft 347 kts 258°
2026-05-01 13:25 38.62341 -80.37479 24043 ft 347 kts 258°
2026-05-01 13:25 38.61777 -80.40476 24057 ft 347 kts 258°
2026-05-01 13:25 38.61206 -80.43473 24051 ft 347 kts 258°
2026-05-01 13:25 38.60633 -80.46474 24044 ft 347 kts 258°
2026-05-01 13:26 38.60064 -80.49475 24038 ft 347 kts 258°
2026-05-01 13:26 38.59486 -80.52479 24021 ft 348 kts 258°
2026-05-01 13:26 38.58915 -80.55475 24035 ft 347 kts 258°
2026-05-01 13:26 38.58339 -80.58480 24037 ft 347 kts 258°
2026-05-01 13:27 38.57766 -80.61475 24024 ft 347 kts 258°
2026-05-01 13:27 38.57203 -80.64434 24028 ft 347 kts 258°
2026-05-01 13:27 38.56047 -80.70425 24026 ft 347 kts 258°
2026-05-01 13:28 38.54891 -80.76416 24023 ft 347 kts 258°
2026-05-01 13:28 38.54309 -80.79410 24024 ft 347 kts 258°
2026-05-01 13:29 38.53147 -80.85390 24011 ft 344 kts 258°
2026-05-01 13:29 38.52002 -80.91309 24030 ft 344 kts 258°
2026-05-01 13:30 38.49677 -81.03178 24022 ft 344 kts 258°
2026-05-01 13:31 38.48523 -81.09068 24034 ft 344 kts 258°
2026-05-01 13:31 38.46777 -81.17951 24038 ft 344 kts 258°
2026-05-01 13:32 38.45607 -81.23870 24028 ft 344 kts 258°
2026-05-01 13:33 38.43845 -81.32761 24033 ft 345 kts 258°
2026-05-01 13:33 38.42666 -81.38695 24036 ft 345 kts 258°
2026-05-01 13:34 38.41478 -81.44641 24026 ft 345 kts 257°
2026-05-01 13:34 38.40293 -81.50570 24030 ft 345 kts 257°
2026-05-01 13:35 38.39103 -81.56487 24038 ft 345 kts 257°
2026-05-01 13:35 38.38513 -81.59417 24038 ft 345 kts 257°
2026-05-01 13:35 38.37312 -81.65379 24033 ft 345 kts 257°
2026-05-01 13:36 38.36722 -81.68303 24029 ft 346 kts 257°
2026-05-01 13:36 38.36122 -81.71271 24014 ft 344 kts 257°
2026-05-01 13:36 38.34933 -81.77133 24025 ft 342 kts 257°
2026-05-01 13:37 38.34234 -81.80024 24051 ft 343 kts 253°
2026-05-01 13:37 38.33670 -81.81949 24048 ft 344 kts 252°
2026-05-01 13:37 38.32556 -81.85719 24028 ft 342 kts 253°
2026-05-01 13:37 38.31727 -81.88555 24037 ft 341 kts 253°
2026-05-01 13:38 38.30106 -81.94195 24041 ft 338 kts 253°
2026-05-01 13:38 38.29314 -81.97013 24052 ft 337 kts 253°
2026-05-01 13:38 38.28533 -81.99829 24055 ft 337 kts 253°
2026-05-01 13:39 38.28305 -82.00657 24058 ft 337 kts 254°